This is the latest recevied weather packets stored in our database for station/object N2ZVN. If no packets are shown the sender has not sent any weather packets the latest 10 day(s).
| Time | Temp. | Humidity | Pressure | Rain* | Wind** | Luminosity | Snow |
|---|---|---|---|---|---|---|---|
| 1777306407 | 17.78° C | 45% | 1024.4 hPa | 0 mm | - | 837 W/m² | - |
| 1777306107 | 17.78° C | 42% | 1024.2 hPa | 0 mm | - | 832 W/m² | - |
| 1777305803 | 17.78° C | 44% | 1024.5 hPa | 0 mm | - | 828 W/m² | - |
| 1777305499 | 17.78° C | 45% | 1024.3 hPa | 0 mm | - | 822 W/m² | - |
| 1777305195 | 17.78° C | 39% | 1024.5 hPa | 0 mm | - | 818 W/m² | - |
| 1777304890 | 17.78° C | 42% | 1024.5 hPa | 0 mm | - | 812 W/m² | - |
| 1777304587 | 17.78° C | 41% | 1024.6 hPa | 0 mm | - | 806 W/m² | - |
| 1777304283 | 17.78° C | 41% | 1024.6 hPa | 0 mm | - | 798 W/m² | - |
| 1777303981 | 17.22° C | 42% | 1024.6 hPa | 0 mm | - | 792 W/m² | - |
| 1777303677 | 17.22° C | 42% | 1025.1 hPa | 0 mm | - | 782 W/m² | - |
| 1777303375 | 17.22° C | 43% | 1024.9 hPa | 0 mm | - | 773 W/m² | - |
| 1777303072 | 17.22° C | 45% | 1024.9 hPa | 0 mm | - | 765 W/m² | - |
| 1777302770 | 17.78° C | 43% | 1024.9 hPa | 0 mm | - | 757 W/m² | - |
| 1777302468 | 17.78° C | 41% | 1025.1 hPa | 0 mm | - | 748 W/m² | - |
| 1777302165 | 17.22° C | 43% | 1025.2 hPa | 0 mm | - | 680 W/m² | - |
| 1777301863 | 17.22° C | 41% | 1025.4 hPa | 0 mm | - | 706 W/m² | - |
| 1777301560 | 17.22° C | 42% | 1025.5 hPa | 0 mm | - | 708 W/m² | - |
| 1777301257 | 17.22° C | 44% | 1025.4 hPa | 0 mm | - | 693 W/m² | - |
| 1777300954 | 16.67° C | 44% | 1025.4 hPa | 0 mm | - | 265 W/m² | - |
| 1777300652 | 16.67° C | 43% | 1025.5 hPa | 0 mm | - | 683 W/m² | - |
| 1777300349 | 16.67° C | 43% | 1025.4 hPa | 0 mm | - | 668 W/m² | - |
| 1777300046 | 16.67° C | 44% | 1025.4 hPa | 0 mm | - | 655 W/m² | - |
| 1777299743 | 16.11° C | 46% | 1025.3 hPa | 0 mm | - | 643 W/m² | - |
| 1777299440 | 16.11° C | 44% | 1025.6 hPa | 0 mm | - | 629 W/m² | - |
| 1777299138 | 16.11° C | 43% | 1025.5 hPa | 0 mm | - | 615 W/m² | - |
* Rain latest hour (hover to see other rain measurements)
** Current wind speed in m/s (hover to see current wind gust speed)